Zurück zum Katalog

DELTA 1 DEB

AktivLEO
NORAD 18870·DEBRIS·🇺🇸 United States

Gestartet Nov 6, 1973 von Vandenberg Space Force Base

Loading…

Nächste Überflüge (nächste 24 Stunden)

TLE

AktuellSource: Space-Track

Epoche: Sep 14, 2026, 00:35 UTC

1 18870U 73086HA  26257.02479741  .00000606  00000-0  70234-2 0  9994
2 18870 101.7708 173.2064 0357789 350.7874   8.6722 11.95526281593671

Verfolge DELTA 1 DEB in Echtzeit mit AllMySat

Download on the App Store